"Pseudo-MPEC" for P11OrVt

Created 2023 Dec 2 1:22:05 UT using Find_Orb

Click here for an explanation of pseudo-MPECs

 
 Astrometry: 
     P11OrVt* C2023 11 19v3(@W'?e=6+yW@@[%.,kytZ`WIuAstrometrySK.[k@=d@('AftvF51
     P11OrVt  C2023 11 19,:1gs?sdrredacted;myYJHTWNbms(08#l?xd,r`l2K3,j`JcTIvF51
     P11OrVt  C2023 11 19XLP6l]MOGe,9_click*WErkhC%N4eyQs'RNWB(#Y0,u8sZBPYxHKF51
     P11OrVt  C2023 11 19gFP;ZoneiKluS#q6ZPFg0u%)03iT6:hereA\D7p:_5]0'2d^)Y_iF51
     P11OrVt  C2023 11 19u?L+forA_OuOiq1hb[\GpsXQ+v54P.GPm6%2be-!:]+]TpKR-=OTF51
     P11OrVt  C2023 11 19eKiyUQF+E6e1RexplanationPs.jV9Md/SZ;:wuMr`R;:.G`mFQXF51

Station data:
(F51) Pan-STARRS 1, Haleakala  (N20.707234 W156.255910)  US/Hawaii.
   Observers J. Bulger, T. Lowe, A. Schultz, M. Willman. Measurers K.
   Chambers, S. Chastel, T. de Boer, L. Denneau, J. Fairlamb, H. Flewelling,
   M. Huber, C.-C. Lin, E. Magnier, Y. Ramanjooloo, R. Wainscoat, R. Weryk.
   1.8-m Ritchey-Chrétien + CCD.

Orbital elements:  P11OrVt
   Perihelion 2023 Jul 5.07306 +/- 234 TT =  1:45:12 (JD 2460130.57306)
Epoch 2023 Nov 20.0 TT = JDT 2460268.5   Earth MOID: 0.2720   Ju: 0.5241
M   6.77716126 +/- 55               Ma: 0.0225                   AutoNEOCP
n   0.04913587 +/- 0.107            Peri.  241.22666 +/- 100
a   7.38250195 +/- 10.7             Node    85.38653 +/- 16
e   0.8489422 +/- 0.275             Incl.   22.02208 +/- 26
P  20.06                   H 19.23  G  0.15   U 11.3  SR
q 1.11518443 +/- 0.764    Q 13.6498194 +/- 11             (J2000 ecliptic)
From 6 observations 2023 Nov. 19 (3.9 hr); mean residual 0".07
Residuals in arcseconds: 
231119 F51  .06+  .00     231119 F51  .04-  .11+    231119 F51  .09+  .08-    
231119 F51  .02+  .10-    231119 F51  .06-  .00     231119 F51  .07-  .07+    

Ephemerides (geocentric):
Date (UTC) HH   RA             Dec           delta  r     elong  mag " sig PA
---- --------  ------------   ------------  ------ ------ -----  --- --------
2023 12 02 01  04 10 52.884   +07 02 51.53  1.3384 2.3037 164.5 22.2 9562  62
2023 12 02 02  04 10 49.627   +07 03 16.26  1.3389 2.3041 164.5 22.2 9737  62
2023 12 02 03  04 10 46.374   +07 03 40.98  1.3394 2.3045 164.5 22.2 9918  62
2023 12 02 04  04 10 43.123   +07 04 05.71  1.3398 2.3049 164.4 22.2 168'  62
2023 12 02 05  04 10 39.874   +07 04 30.44  1.3403 2.3054 164.4 22.2 172'  62
2023 12 02 06  04 10 36.628   +07 04 55.17  1.3408 2.3058 164.4 22.2 175'  62
2023 12 02 07  04 10 33.385   +07 05 19.89  1.3413 2.3062 164.4 22.2 178'  62
2023 12 02 08  04 10 30.144   +07 05 44.62  1.3417 2.3066 164.4 22.2 181'  62
2023 12 02 09  04 10 26.906   +07 06 09.35  1.3422 2.3070 164.4 22.2 185'  62
2023 12 02 10  04 10 23.671   +07 06 34.07  1.3427 2.3075 164.3 22.2 189'  62
2023 12 02 11  04 10 20.438   +07 06 58.80  1.3432 2.3079 164.3 22.2 192'  62
2023 12 02 12  04 10 17.208   +07 07 23.53  1.3437 2.3083 164.3 22.2 196'  63
2023 12 02 13  04 10 13.980   +07 07 48.26  1.3441 2.3087 164.3 22.2 200'  63
2023 12 02 14  04 10 10.755   +07 08 12.98  1.3446 2.3092 164.3 22.2 204'  63
2023 12 02 15  04 10 07.533   +07 08 37.71  1.3451 2.3096 164.2 22.2 208'  63
2023 12 02 16  04 10 04.313   +07 09 02.44  1.3456 2.3100 164.2 22.2 212'  63
2023 12 02 17  04 10 01.096   +07 09 27.16  1.3461 2.3104 164.2 22.2 216'  63
2023 12 02 18  04 09 57.882   +07 09 51.89  1.3465 2.3108 164.2 22.2 221'  63
2023 12 02 19  04 09 54.670   +07 10 16.62  1.3470 2.3113 164.2 22.2 225'  63
2023 12 02 20  04 09 51.461   +07 10 41.34  1.3475 2.3117 164.2 22.2 230'  63
2023 12 02 21  04 09 48.255   +07 11 06.07  1.3480 2.3121 164.1 22.2 235'  64
2023 12 02 22  04 09 45.051   +07 11 30.79  1.3485 2.3125 164.1 22.2 240'  64
2023 12 02 23  04 09 41.850   +07 11 55.52  1.3490 2.3129 164.1 22.2 245'  64
2023 12 03 00  04 09 38.651   +07 12 20.25  1.3495 2.3134 164.1 22.2 250'  64
2023 12 03 01  04 09 35.456   +07 12 44.97  1.3499 2.3138 164.1 22.2 255'  64
2023 12 03 02  04 09 32.263   +07 13 09.70  1.3504 2.3142 164.0 22.2 261'  64
2023 12 03 03  04 09 29.072   +07 13 34.42  1.3509 2.3146 164.0 22.2 266'  64
2023 12 03 04  04 09 25.885   +07 13 59.14  1.3514 2.3150 164.0 22.2 272'  65
2023 12 03 05  04 09 22.700   +07 14 23.87  1.3519 2.3155 164.0 22.2 278'  65
2023 12 03 06  04 09 19.518   +07 14 48.59  1.3524 2.3159 163.9 22.2 284'  65
2023 12 03 07  04 09 16.338   +07 15 13.31  1.3529 2.3163 163.9 22.2 291'  65
2023 12 03 08  04 09 13.161   +07 15 38.04  1.3534 2.3167 163.9 22.2 297'  65
2023 12 03 09  04 09 09.987   +07 16 02.76  1.3538 2.3171 163.9 22.2 304'  65
2023 12 03 10  04 09 06.816   +07 16 27.48  1.3543 2.3176 163.9 22.2 310'  66
2023 12 03 11  04 09 03.647   +07 16 52.20  1.3548 2.3180 163.8 22.2 317'  66
2023 12 03 12  04 09 00.481   +07 17 16.92  1.3553 2.3184 163.8 22.2 324'  66
2023 12 03 13  04 08 57.318   +07 17 41.64  1.3558 2.3188 163.8 22.2 332'  66
2023 12 03 14  04 08 54.157   +07 18 06.37  1.3563 2.3192 163.8 22.2 339'  67
2023 12 03 15  04 08 50.999   +07 18 31.08  1.3568 2.3197 163.8 22.2 347'  67
2023 12 03 16  04 08 47.844   +07 18 55.80  1.3573 2.3201 163.7 22.2 355'  67
2023 12 03 17  04 08 44.692   +07 19 20.52  1.3578 2.3205 163.7 22.2 363'  67
2023 12 03 18  04 08 41.543   +07 19 45.24  1.3583 2.3209 163.7 22.2 371'  68
2023 12 03 19  04 08 38.396   +07 20 09.96  1.3588 2.3213 163.7 22.2 379'  68
2023 12 03 20  04 08 35.252   +07 20 34.68  1.3593 2.3218 163.6 22.2 388'  68
2023 12 03 21  04 08 32.111   +07 20 59.39  1.3598 2.3222 163.6 22.2 397'  68
2023 12 03 22  04 08 28.972   +07 21 24.11  1.3603 2.3226 163.6 22.2 405'  69
2023 12 03 23  04 08 25.836   +07 21 48.82  1.3608 2.3230 163.6 22.2 414'  69
2023 12 04 00  04 08 22.703   +07 22 13.54  1.3613 2.3234 163.5 22.2 424'  69